4XCTF LLMZ-LLBS

Flight info

Callsign 4XCTF
Flight time 0h 27m
Altitude 4000
Route LLMZ MMORR ARRAD TARAD MYTAR SOKET OMMER NCITY LLBS
Aircraft C172/L-SDE/C

Departure

Time 2026-05-06 19:23
Airport Bar Yehuda Airfield (LLMZ)

Arrival

Time 2026-05-06 19:51
Airport Beersheba (Teyman) Airport (LLBS)
Time Latitude Longitude Altitude Speed Heading
2026-05-06 19:13 31.32948 35.38821 -1233 ft 0 kts 96°
2026-05-06 19:20 31.32948 35.38831 -1232 ft 4 kts 79°
2026-05-06 19:20 31.32948 35.38833 -1231 ft 0 kts 78°
2026-05-06 19:21 31.32953 35.38848 -1229 ft 7 kts 63°
2026-05-06 19:21 31.33011 35.38891 -1229 ft 13 kts
2026-05-06 19:21 31.33124 35.38915 -1227 ft 20 kts 11°
2026-05-06 19:21 31.33263 35.38939 -1223 ft 13 kts
2026-05-06 19:22 31.33329 35.38941 -1221 ft 5 kts 77°
2026-05-06 19:22 31.33309 35.38954 -1221 ft 0 kts 192°
2026-05-06 19:22 31.33202 35.38932 -1224 ft 46 kts 189°
2026-05-06 19:23 31.32760 35.38858 -1083 ft 69 kts 182°
2026-05-06 19:23 31.32292 35.38837 -775 ft 68 kts 182°
2026-05-06 19:23 31.31808 35.38806 -494 ft 72 kts 181°
2026-05-06 19:23 31.31314 35.38774 -175 ft 70 kts 180°
2026-05-06 19:24 31.30799 35.38772 85 ft 76 kts 179°
2026-05-06 19:24 31.30276 35.38805 398 ft 74 kts 177°
2026-05-06 19:24 31.29757 35.38852 648 ft 76 kts 175°
2026-05-06 19:24 31.29234 35.38922 912 ft 75 kts 177°
2026-05-06 19:25 31.28709 35.38960 1153 ft 77 kts 176°
2026-05-06 19:25 31.28172 35.39020 1417 ft 77 kts 172°
2026-05-06 19:25 31.27642 35.39105 1653 ft 79 kts 185°
2026-05-06 19:25 31.27081 35.39031 1905 ft 78 kts 189°
2026-05-06 19:26 31.26562 35.38928 2180 ft 74 kts 188°
2026-05-06 19:26 31.26105 35.38716 2421 ft 72 kts 230°
2026-05-06 19:26 31.25870 35.38134 2554 ft 85 kts 265°
2026-05-06 19:26 31.25895 35.37488 2871 ft 75 kts 275°
2026-05-06 19:27 31.25941 35.36922 3119 ft 70 kts 275°
2026-05-06 19:27 31.25964 35.36323 3267 ft 78 kts 272°
2026-05-06 19:27 31.25977 35.35687 3515 ft 75 kts 273°
2026-05-06 19:27 31.25980 35.35021 3623 ft 88 kts 268°
2026-05-06 19:28 31.25909 35.34382 3953 ft 77 kts 263°
2026-05-06 19:28 31.25816 35.33775 4098 ft 79 kts 261°
2026-05-06 19:28 31.25698 35.33115 4178 ft 84 kts 259°
2026-05-06 19:28 31.25551 35.32445 4218 ft 87 kts 256°
2026-05-06 19:29 31.25398 35.31749 4243 ft 88 kts 259°
2026-05-06 19:29 31.25279 35.31050 4302 ft 86 kts 261°
2026-05-06 19:29 31.25174 35.30361 4326 ft 87 kts 264°
2026-05-06 19:29 31.25127 35.29652 4350 ft 87 kts 266°
2026-05-06 19:30 31.25077 35.28931 4267 ft 93 kts 268°
2026-05-06 19:30 31.25043 35.28197 4206 ft 91 kts 271°
2026-05-06 19:30 31.25074 35.27458 4133 ft 91 kts 273°
2026-05-06 19:30 31.25087 35.26715 4115 ft 92 kts 272°
2026-05-06 19:31 31.25100 35.25958 4097 ft 92 kts 272°
2026-05-06 19:31 31.25115 35.25230 4080 ft 92 kts 272°
2026-05-06 19:31 31.25105 35.23799 4030 ft 84 kts 268°
2026-05-06 19:32 31.25032 35.23114 3926 ft 87 kts 269°
2026-05-06 19:32 31.25023 35.22375 4022 ft 91 kts 269°
2026-05-06 19:32 31.24990 35.21650 4129 ft 89 kts 270°
2026-05-06 19:32 31.25045 35.20936 4171 ft 89 kts 284°
2026-05-06 19:33 31.25207 35.20199 4137 ft 94 kts 287°
2026-05-06 19:33 31.25358 35.19514 4170 ft 86 kts 288°
2026-05-06 19:33 31.25547 35.18829 4106 ft 89 kts 290°
2026-05-06 19:33 31.25741 35.18145 4063 ft 90 kts 290°
2026-05-06 19:34 31.25962 35.17442 3994 ft 91 kts 291°
2026-05-06 19:34 31.26182 35.16747 3975 ft 93 kts 290°
2026-05-06 19:34 31.26394 35.16009 4070 ft 98 kts 288°
2026-05-06 19:34 31.26603 35.15294 4107 ft 92 kts 289°
2026-05-06 19:35 31.26813 35.14592 4020 ft 93 kts 291°
2026-05-06 19:35 31.27032 35.13875 4035 ft 94 kts 290°
2026-05-06 19:35 31.27277 35.13144 3999 ft 98 kts 291°
2026-05-06 19:35 31.27486 35.12350 4035 ft 106 kts 282°
2026-05-06 19:36 31.27494 35.11512 4236 ft 94 kts 269°
2026-05-06 19:36 31.27464 35.10806 4264 ft 84 kts 270°
2026-05-06 19:36 31.27438 35.10130 4213 ft 82 kts 269°
2026-05-06 19:36 31.27416 35.09476 4189 ft 79 kts 272°
2026-05-06 19:37 31.27425 35.08812 4115 ft 87 kts 274°
2026-05-06 19:37 31.27431 35.08103 4180 ft 85 kts 272°
2026-05-06 19:37 31.27438 35.07395 4097 ft 90 kts 274°
2026-05-06 19:37 31.27463 35.06909 4111 ft 91 kts 276°
2026-05-06 19:38 31.27537 35.05944 4125 ft 88 kts 274°
2026-05-06 19:38 31.27599 35.05212 4076 ft 92 kts 279°
2026-05-06 19:38 31.27694 35.04473 4064 ft 90 kts 281°
2026-05-06 19:38 31.27811 35.03770 4075 ft 86 kts 283°
2026-05-06 19:39 31.27922 35.03069 3990 ft 91 kts 283°
2026-05-06 19:39 31.28071 35.02353 3964 ft 92 kts 288°
2026-05-06 19:39 31.28241 35.01643 4007 ft 92 kts 289°
2026-05-06 19:39 31.28462 35.00955 4100 ft 88 kts 291°
2026-05-06 19:40 31.28709 35.00266 4119 ft 94 kts 296°
2026-05-06 19:40 31.28995 34.99580 4191 ft 91 kts 296°
2026-05-06 19:40 31.29302 34.98912 4143 ft 95 kts 298°
2026-05-06 19:40 31.29593 34.98237 4144 ft 91 kts 296°
2026-05-06 19:41 31.29884 34.97582 4116 ft 88 kts 296°
2026-05-06 19:41 31.30153 34.96932 4010 ft 92 kts 296°
2026-05-06 19:41 31.30481 34.96249 3983 ft 99 kts 300°
2026-05-06 19:41 31.30839 34.95563 4093 ft 97 kts 300°
2026-05-06 19:42 31.31122 34.94803 4010 ft 109 kts 282°
2026-05-06 19:42 31.31071 34.93941 4134 ft 96 kts 261°
2026-05-06 19:42 31.30939 34.93218 4150 ft 92 kts 262°
2026-05-06 19:42 31.30827 34.92493 4129 ft 91 kts 263°
2026-05-06 19:43 31.30740 34.91756 4038 ft 93 kts 263°
2026-05-06 19:43 31.30634 34.91005 3952 ft 92 kts 261°
2026-05-06 19:43 31.30433 34.90294 3845 ft 96 kts 245°
2026-05-06 19:43 31.30071 34.89631 3621 ft 94 kts 238°
2026-05-06 19:44 31.29712 34.89009 3326 ft 91 kts 240°
2026-05-06 19:44 31.29377 34.88406 3106 ft 82 kts 242°
2026-05-06 19:44 31.29065 34.87827 2997 ft 93 kts 240°
2026-05-06 19:44 31.28721 34.87177 2918 ft 95 kts 241°
2026-05-06 19:45 31.28347 34.86510 2974 ft 96 kts 239°
2026-05-06 19:45 31.27949 34.85858 2894 ft 102 kts 240°
2026-05-06 19:45 31.27600 34.85117 3003 ft 103 kts 246°
2026-05-06 19:45 31.27296 34.84380 3256 ft 92 kts 250°
2026-05-06 19:46 31.27087 34.83719 3561 ft 87 kts 255°
2026-05-06 19:46 31.26986 34.82958 3511 ft 102 kts 277°
2026-05-06 19:46 31.27169 34.82144 3622 ft 102 kts 292°
2026-05-06 19:46 31.27445 34.81401 3632 ft 100 kts 296°
2026-05-06 19:47 31.27750 34.80662 3530 ft 101 kts 296°
2026-05-06 19:47 31.28014 34.79935 3275 ft 95 kts 289°
2026-05-06 19:47 31.28091 34.79180 2990 ft 93 kts 273°
2026-05-06 19:47 31.28097 34.78439 2669 ft 91 kts 275°
2026-05-06 19:48 31.28165 34.77688 2322 ft 93 kts 283°
2026-05-06 19:48 31.28281 34.76981 2055 ft 85 kts 282°
2026-05-06 19:48 31.28359 34.76228 1747 ft 98 kts 269°
2026-05-06 19:48 31.28109 34.75549 1556 ft 82 kts 239°
2026-05-06 19:49 31.27801 34.75101 1396 ft 65 kts 234°
2026-05-06 19:49 31.27410 34.74785 1312 ft 71 kts 221°
2026-05-06 19:49 31.27176 34.74339 1279 ft 59 kts 248°
2026-05-06 19:49 31.27225 34.73896 1094 ft 59 kts 302°
2026-05-06 19:50 31.27521 34.73570 938 ft 57 kts 309°
2026-05-06 19:50 31.27807 34.73237 807 ft 59 kts 310°
2026-05-06 19:50 31.28107 34.72914 715 ft 59 kts 315°
2026-05-06 19:50 31.28407 34.72587 659 ft 55 kts 314°
2026-05-06 19:51 31.28583 34.72394 656 ft 22 kts 313°
2026-05-06 19:51 31.28654 34.72390 654 ft 11 kts 42°
2026-05-06 19:51 31.28674 34.72421 654 ft 0 kts 107°
2026-05-06 19:51 31.28661 34.72429 656 ft 0 kts 190°